This is the latest recevied weather packets stored in our database for station/object 9W2GDL-10. If no packets are shown the sender has not sent any weather packets the latest 10 day(s).
| Time | Temp. | Humidity | Pressure | Rain* | Wind** | Luminosity | Snow |
|---|---|---|---|---|---|---|---|
| 1788109898 | 30.56° C | 72% | 1012.2 hPa | - | - | - | - |
| 1788109297 | 30.56° C | 72% | 1012.2 hPa | - | - | - | - |
| 1788108696 | 31.11° C | 71% | 1012.2 hPa | - | - | - | - |
| 1788108095 | 30° C | 73% | 1012.3 hPa | - | - | - | - |
| 1788107494 | 30.56° C | 72% | 1012.2 hPa | - | - | - | - |
| 1788106894 | 31.67° C | 70% | 1012.3 hPa | - | - | - | - |
| 1788106533 | 31.67° C | 71% | 1012.4 hPa | - | - | - | - |
| 1788106467 | 31.11° C | 71% | 1012.3 hPa | - | - | - | - |
| 1788106073 | 30.56° C | 73% | 1012.3 hPa | - | - | - | - |
| 1788105472 | 31.11° C | 72% | 1012.2 hPa | - | - | - | - |
| 1788104871 | 31.67° C | 71% | 1012.3 hPa | - | - | - | - |
| 1788104270 | 31.11° C | 71% | 1012.3 hPa | - | - | - | - |
| 1788103669 | 31.11° C | 70% | 1012.3 hPa | - | - | - | - |
| 1788103069 | 31.67° C | 71% | 1012.3 hPa | - | - | - | - |
| 1788102468 | 31.67° C | 71% | 1012.2 hPa | - | - | - | - |
| 1788101867 | 31.67° C | 70% | 1012.2 hPa | - | - | - | - |
| 1788101266 | 31.67° C | 70% | 1012 hPa | - | - | - | - |
| 1788100665 | 31.67° C | 69% | 1011.9 hPa | - | - | - | - |
| 1788100064 | 31.67° C | 70% | 1012 hPa | - | - | - | - |
| 1788099463 | 31.67° C | 69% | 1012 hPa | - | - | - | - |
| 1788098862 | 32.22° C | 67% | 1011.8 hPa | - | - | - | - |
| 1788098261 | 32.22° C | 65% | 1011.8 hPa | - | - | - | - |
| 1788097660 | 32.22° C | 67% | 1011.7 hPa | - | - | - | - |
| 1788097059 | 32.22° C | 68% | 1011.7 hPa | - | - | - | - |
| 1788096459 | 31.67° C | 70% | 1011.5 hPa | - | - | - | - |
* Rain since midnight (hover to see other rain measurements)
** Current wind speed in m/s (hover to see current wind gust speed)